"Datum/tijd (MEZT)";"astronomisch [cm]";"verwachting RWS";"waterstand [cm]"
2024-04-17 13:00;;88;84
2024-04-17 13:10;;89;85
2024-04-17 13:20;;90;85
2024-04-17 13:30;;91;87
2024-04-17 13:40;;92;87
2024-04-17 13:50;;93;88
2024-04-17 14:00;;93;88
2024-04-17 14:10;;94;89
2024-04-17 14:20;;94;89
2024-04-17 14:30;;94;91
2024-04-17 14:40;;95;91
2024-04-17 14:50;;95;92
2024-04-17 15:00;;95;92
2024-04-17 15:10;;96;94
2024-04-17 15:20;;96;94
2024-04-17 15:30;;96;95
2024-04-17 15:40;;97;95
2024-04-17 15:50;;97;96
2024-04-17 16:00;;97;96
2024-04-17 16:10;;98;96
2024-04-17 16:20;;98;96
2024-04-17 16:30;;98;97
2024-04-17 16:40;;99;97
2024-04-17 16:50;;99;97
2024-04-17 17:00;;100;97
2024-04-17 17:10;;100;97
2024-04-17 17:20;;100;96
2024-04-17 17:30;;100;96
2024-04-17 17:40;;100;96
2024-04-17 17:50;;100;97
2024-04-17 18:00;;100;97
2024-04-17 18:10;;100;97
2024-04-17 18:20;;100;97
2024-04-17 18:30;;99;96
2024-04-17 18:40;;99;96
2024-04-17 18:50;;99;96
2024-04-17 19:00;;98;96
2024-04-17 19:10;;98;95
2024-04-17 19:20;;97;95
2024-04-17 19:30;;97;95
2024-04-17 19:40;;96;95
2024-04-17 19:50;;96;94
2024-04-17 20:00;;93;94
2024-04-17 20:10;;92;94
2024-04-17 20:20;;92;94
2024-04-17 20:30;;91;93
2024-04-17 20:40;;91;93
2024-04-17 20:50;;90;93
2024-04-17 21:00;;90;92
2024-04-17 21:10;;90;92
2024-04-17 21:20;;89;91
2024-04-17 21:30;;89;91
2024-04-17 21:40;;88;91
2024-04-17 21:50;;88;90
2024-04-17 22:00;;87;89
2024-04-17 22:10;;87;89
2024-04-17 22:20;;86;88
2024-04-17 22:30;;86;88
2024-04-17 22:40;;86;87
2024-04-17 22:50;;85;87
2024-04-17 23:00;;85;87
2024-04-17 23:10;;84;87
2024-04-17 23:20;;84;87
2024-04-17 23:30;;83;87
2024-04-17 23:40;;83;87
2024-04-17 23:50;;83;86
2024-04-18 00:00;;82;86
2024-04-18 00:10;;82;85
2024-04-18 00:20;;82;85
2024-04-18 00:30;;82;85
2024-04-18 00:40;;81;85
2024-04-18 00:50;;81;85
2024-04-18 01:00;;77;85
2024-04-18 01:10;;78;85
2024-04-18 01:20;;78;85
2024-04-18 01:30;;78;85
2024-04-18 01:40;;78;86
2024-04-18 01:50;;79;86
2024-04-18 02:00;;79;86
2024-04-18 02:10;;80;86
2024-04-18 02:20;;80;87
2024-04-18 02:30;;81;88
2024-04-18 02:40;;82;88
2024-04-18 02:50;;82;89
2024-04-18 03:00;;83;89
2024-04-18 03:10;;84;89
2024-04-18 03:20;;84;90
2024-04-18 03:30;;85;91
2024-04-18 03:40;;85;91
2024-04-18 03:50;;85;91
2024-04-18 04:00;;86;92
2024-04-18 04:10;;86;92
2024-04-18 04:20;;86;92
2024-04-18 04:30;;86;93
2024-04-18 04:40;;86;93
2024-04-18 04:50;;86;93
2024-04-18 05:00;;86;93
2024-04-18 05:10;;86;93
2024-04-18 05:20;;86;92
2024-04-18 05:30;;85;92
2024-04-18 05:40;;85;92
2024-04-18 05:50;;85;92
2024-04-18 06:00;;84;92
2024-04-18 06:10;;84;91
2024-04-18 06:20;;84;91
2024-04-18 06:30;;83;91
2024-04-18 06:40;;83;90
2024-04-18 06:50;;83;90
2024-04-18 07:00;;82;89
2024-04-18 07:10;;82;89
2024-04-18 07:20;;82;89
2024-04-18 07:30;;82;88
2024-04-18 07:40;;81;87
2024-04-18 07:50;;81;87
2024-04-18 08:00;;81;87
2024-04-18 08:10;;80;86
2024-04-18 08:20;;80;85
2024-04-18 08:30;;80;85
2024-04-18 08:40;;79;84
2024-04-18 08:50;;79;84
2024-04-18 09:00;;78;83
2024-04-18 09:10;;78;83
2024-04-18 09:20;;77;82
2024-04-18 09:30;;77;82
2024-04-18 09:40;;76;82
2024-04-18 09:50;;76;81
2024-04-18 10:00;;80;81
2024-04-18 10:10;;79;80
2024-04-18 10:20;;78;80
2024-04-18 10:30;;78;80
2024-04-18 10:40;;77;79
2024-04-18 10:50;;76;79
2024-04-18 11:00;;76;79
2024-04-18 11:10;;75;78
2024-04-18 11:20;;75;78
2024-04-18 11:30;;74;78
2024-04-18 11:40;;73;
2024-04-18 11:50;;73;77
2024-04-18 12:00;;72;77
2024-04-18 12:10;;72;77
2024-04-18 12:20;;71;76
2024-04-18 12:30;;71;76
2024-04-18 12:40;;71;76
2024-04-18 12:50;;70;75
2024-04-18 13:00;;70;75
2024-04-18 13:10;;70;75
2024-04-18 13:20;;70;75
2024-04-18 13:30;;70;75
2024-04-18 13:40;;70;75
2024-04-18 13:50;;71;75
2024-04-18 14:00;;71;76
2024-04-18 14:10;;72;76
2024-04-18 14:20;;72;77
2024-04-18 14:30;;73;77
2024-04-18 14:40;;74;78
2024-04-18 14:50;;75;79
2024-04-18 15:00;;76;80
2024-04-18 15:10;;77;81
2024-04-18 15:20;;78;81
2024-04-18 15:30;;78;82
2024-04-18 15:40;;79;82
2024-04-18 15:50;;80;83
2024-04-18 16:00;;81;
2024-04-18 16:10;;81;85
2024-04-18 16:20;;82;
2024-04-18 16:30;;83;86
2024-04-18 16:40;;83;87
2024-04-18 16:50;;84;88
2024-04-18 17:00;;84;89
2024-04-18 17:10;;85;89
2024-04-18 17:20;;86;90
2024-04-18 17:30;;86;90
2024-04-18 17:40;;87;91
2024-04-18 17:50;;87;91
2024-04-18 18:00;;87;92
2024-04-18 18:10;;87;93
2024-04-18 18:20;;88;93
2024-04-18 18:30;;88;93
2024-04-18 18:40;;88;93
2024-04-18 18:50;;88;93
2024-04-18 19:00;;87;93
2024-04-18 19:10;;87;93
2024-04-18 19:20;;87;93
2024-04-18 19:30;;87;93
2024-04-18 19:40;;86;93
2024-04-18 19:50;;86;92
2024-04-18 20:00;;86;92
2024-04-18 20:10;;85;92
2024-04-18 20:20;;85;92
2024-04-18 20:30;;84;91
2024-04-18 20:40;;84;91
2024-04-18 20:50;;83;91
2024-04-18 21:00;;83;90
2024-04-18 21:10;;83;90
2024-04-18 21:20;;82;89
2024-04-18 21:30;;82;89
2024-04-18 21:40;;82;89
2024-04-18 21:50;;81;88
2024-04-18 22:00;;81;88
2024-04-18 22:10;;81;87
2024-04-18 22:20;;80;87
2024-04-18 22:30;;80;86
2024-04-18 22:40;;80;86
2024-04-18 22:50;;79;85
2024-04-18 23:00;;79;85
2024-04-18 23:10;;78;84
2024-04-18 23:20;;78;84
2024-04-18 23:30;;78;84
2024-04-18 23:40;;77;83
2024-04-18 23:50;;77;83
2024-04-19 00:00;;76;82
2024-04-19 00:10;;76;81
2024-04-19 00:20;;75;81
2024-04-19 00:30;;75;80
2024-04-19 00:40;;75;80
2024-04-19 00:50;;74;80
2024-04-19 01:00;;79;79
2024-04-19 01:10;;79;79
2024-04-19 01:20;;78;78
2024-04-19 01:30;;78;78
2024-04-19 01:40;;78;78
2024-04-19 01:50;;78;78
2024-04-19 02:00;;78;78
2024-04-19 02:10;;78;78
2024-04-19 02:20;;78;78
2024-04-19 02:30;;79;78
2024-04-19 02:40;;80;78
2024-04-19 02:50;;81;79
2024-04-19 03:00;;82;79
2024-04-19 03:10;;83;80
2024-04-19 03:20;;85;80
2024-04-19 03:30;;86;81
2024-04-19 03:40;;88;82
2024-04-19 03:50;;89;83
2024-04-19 04:00;;90;84
2024-04-19 04:10;;91;85
2024-04-19 04:20;;92;86
2024-04-19 04:30;;93;86
2024-04-19 04:40;;94;87
2024-04-19 04:50;;94;88
2024-04-19 05:00;;95;88
2024-04-19 05:10;;95;89
2024-04-19 05:20;;96;89
2024-04-19 05:30;;96;90
2024-04-19 05:40;;97;90
2024-04-19 05:50;;97;91
2024-04-19 06:00;;97;91
2024-04-19 06:10;;97;92
2024-04-19 06:20;;97;92
2024-04-19 06:30;;98;92
2024-04-19 06:40;;98;92
2024-04-19 06:50;;97;92
2024-04-19 07:00;;97;92
2024-04-19 07:10;;97;91
2024-04-19 07:20;;97;92
2024-04-19 07:30;;97;91
2024-04-19 07:40;;97;91
2024-04-19 07:50;;97;91
2024-04-19 08:00;;92;91
2024-04-19 08:10;;91;91
2024-04-19 08:20;;91;91
2024-04-19 08:30;;91;91
2024-04-19 08:40;;91;
2024-04-19 08:50;;90;
2024-04-19 09:00;;90;
2024-04-19 09:10;;90;
2024-04-19 09:20;;89;
2024-04-19 09:30;;89;
2024-04-19 09:40;;89;
2024-04-19 09:50;;88;
2024-04-19 10:00;;88;
2024-04-19 10:10;;88;
2024-04-19 10:20;;87;
2024-04-19 10:30;;87;
2024-04-19 10:40;;87;
2024-04-19 10:50;;86;
2024-04-19 11:00;;86;
2024-04-19 11:10;;86;
2024-04-19 11:20;;85;
2024-04-19 11:30;;85;
2024-04-19 11:40;;84;
2024-04-19 11:50;;84;
2024-04-19 12:00;;84;
2024-04-19 12:10;;83;
2024-04-19 12:20;;83;
2024-04-19 12:30;;82;
2024-04-19 12:40;;82;
2024-04-19 12:50;;82;
2024-04-19 13:00;;81;
2024-04-19 13:10;;81;
2024-04-19 13:20;;81;
2024-04-19 13:30;;81;
2024-04-19 13:40;;81;
2024-04-19 13:50;;81;
2024-04-19 14:00;;82;
2024-04-19 14:10;;82;
2024-04-19 14:20;;83;
2024-04-19 14:30;;84;
2024-04-19 14:40;;85;
2024-04-19 14:50;;87;
2024-04-19 15:00;;88;
2024-04-19 15:10;;89;
2024-04-19 15:20;;91;
2024-04-19 15:30;;92;
2024-04-19 15:40;;93;
2024-04-19 15:50;;95;
2024-04-19 16:00;;96;
2024-04-19 16:10;;97;
2024-04-19 16:20;;98;
2024-04-19 16:30;;100;
2024-04-19 16:40;;101;
2024-04-19 16:50;;102;
2024-04-19 17:00;;104;
2024-04-19 17:10;;105;
2024-04-19 17:20;;106;
2024-04-19 17:30;;107;
2024-04-19 17:40;;108;
2024-04-19 17:50;;110;
2024-04-19 18:00;;111;
2024-04-19 18:10;;112;
2024-04-19 18:20;;113;
2024-04-19 18:30;;115;
2024-04-19 18:40;;116;
2024-04-19 18:50;;117;
2024-04-19 19:00;;119;
2024-04-19 19:10;;120;
2024-04-19 19:20;;121;
2024-04-19 19:30;;123;
2024-04-19 19:40;;124;
2024-04-19 19:50;;125;
2024-04-19 20:00;;127;
2024-04-19 20:10;;128;
2024-04-19 20:20;;129;
2024-04-19 20:30;;130;
2024-04-19 20:40;;131;
2024-04-19 20:50;;132;
2024-04-19 21:00;;132;
2024-04-19 21:10;;132;
2024-04-19 21:20;;132;
2024-04-19 21:30;;132;
2024-04-19 21:40;;132;
2024-04-19 21:50;;132;
2024-04-19 22:00;;132;
2024-04-19 22:10;;132;
2024-04-19 22:20;;132;
2024-04-19 22:30;;132;
2024-04-19 22:40;;132;
2024-04-19 22:50;;131;
2024-04-19 23:00;;131;
2024-04-19 23:10;;131;
2024-04-19 23:20;;131;
2024-04-19 23:30;;130;
2024-04-19 23:40;;130;
2024-04-19 23:50;;130;
2024-04-20 00:00;;130;
2024-04-20 00:10;;130;
2024-04-20 00:20;;129;
2024-04-20 00:30;;129;
2024-04-20 00:40;;129;
2024-04-20 00:50;;129;
2024-04-20 01:00;;129;
2024-04-20 01:10;;128;
2024-04-20 01:20;;128;
2024-04-20 01:30;;128;
2024-04-20 01:40;;128;
2024-04-20 01:50;;127;
2024-04-20 02:00;;127;
2024-04-20 02:10;;127;
2024-04-20 02:20;;127;
2024-04-20 02:30;;126;
2024-04-20 02:40;;126;
2024-04-20 02:50;;126;
2024-04-20 03:00;;126;
2024-04-20 03:10;;126;
2024-04-20 03:20;;126;
2024-04-20 03:30;;126;
2024-04-20 03:40;;127;
2024-04-20 03:50;;127;
2024-04-20 04:00;;128;
2024-04-20 04:10;;129;
2024-04-20 04:20;;129;
2024-04-20 04:30;;130;
2024-04-20 04:40;;132;
2024-04-20 04:50;;133;
2024-04-20 05:00;;134;
2024-04-20 05:10;;135;
2024-04-20 05:20;;136;
2024-04-20 05:30;;137;
2024-04-20 05:40;;138;
2024-04-20 05:50;;139;
2024-04-20 06:00;;140;
2024-04-20 06:10;;141;
2024-04-20 06:20;;141;
2024-04-20 06:30;;142;
2024-04-20 06:40;;142;
2024-04-20 06:50;;142;
2024-04-20 07:00;;142;
2024-04-20 07:10;;142;
2024-04-20 07:20;;142;
2024-04-20 07:30;;142;
2024-04-20 07:40;;141;
2024-04-20 07:50;;141;
2024-04-20 08:00;;141;
2024-04-20 08:10;;140;
2024-04-20 08:20;;139;
2024-04-20 08:30;;139;
2024-04-20 08:40;;138;
2024-04-20 08:50;;137;
2024-04-20 09:00;;137;
2024-04-20 09:10;;136;
2024-04-20 09:20;;136;
2024-04-20 09:30;;135;
2024-04-20 09:40;;135;
2024-04-20 09:50;;134;
2024-04-20 10:00;;133;
2024-04-20 10:10;;133;
2024-04-20 10:20;;132;
2024-04-20 10:30;;132;
2024-04-20 10:40;;131;
2024-04-20 10:50;;130;
2024-04-20 11:00;;130;
2024-04-20 11:10;;129;
2024-04-20 11:20;;129;
2024-04-20 11:30;;128;
2024-04-20 11:40;;127;
2024-04-20 11:50;;127;
2024-04-20 12:00;;126;
2024-04-20 12:10;;125;
2024-04-20 12:20;;124;
2024-04-20 12:30;;124;
2024-04-20 12:40;;123;
2024-04-20 12:50;;122;
2024-04-20 13:00;;121;
2024-04-20 13:10;;120;
2024-04-20 13:20;;119;
2024-04-20 13:30;;119;
2024-04-20 13:40;;118;
2024-04-20 13:50;;117;
2024-04-20 14:00;;116;
2024-04-20 14:10;;115;
2024-04-20 14:20;;115;
2024-04-20 14:30;;114;
2024-04-20 14:40;;113;
2024-04-20 14:50;;112;
2024-04-20 15:00;;112;
2024-04-20 15:10;;111;
2024-04-20 15:20;;111;
2024-04-20 15:30;;110;
2024-04-20 15:40;;110;
2024-04-20 15:50;;109;
2024-04-20 16:00;;109;
2024-04-20 16:10;;109;
2024-04-20 16:20;;109;
2024-04-20 16:30;;109;
2024-04-20 16:40;;110;
2024-04-20 16:50;;110;
2024-04-20 17:00;;111;
2024-04-20 17:10;;112;
2024-04-20 17:20;;112;
2024-04-20 17:30;;113;
2024-04-20 17:40;;114;
2024-04-20 17:50;;115;
2024-04-20 18:00;;116;
2024-04-20 18:10;;117;
2024-04-20 18:20;;117;
2024-04-20 18:30;;118;
2024-04-20 18:40;;118;
2024-04-20 18:50;;119;
2024-04-20 19:00;;119;
2024-04-20 19:10;;119;
2024-04-20 19:20;;119;
2024-04-20 19:30;;119;
2024-04-20 19:40;;119;
2024-04-20 19:50;;119;
2024-04-20 20:00;;119;
2024-04-20 20:10;;119;
2024-04-20 20:20;;118;
2024-04-20 20:30;;118;
2024-04-20 20:40;;117;
2024-04-20 20:50;;117;
2024-04-20 21:00;;116;
2024-04-20 21:10;;116;
2024-04-20 21:20;;115;
2024-04-20 21:30;;115;
2024-04-20 21:40;;114;
2024-04-20 21:50;;114;
2024-04-20 22:00;;113;
2024-04-20 22:10;;113;
2024-04-20 22:20;;113;
2024-04-20 22:30;;112;
2024-04-20 22:40;;112;
2024-04-20 22:50;;111;
2024-04-20 23:00;;111;
2024-04-20 23:10;;110;
2024-04-20 23:20;;110;
2024-04-20 23:30;;109;
2024-04-20 23:40;;109;
2024-04-20 23:50;;108;
2024-04-21 00:00;;108;
2024-04-21 00:10;;107;
2024-04-21 00:20;;107;
2024-04-21 00:30;;106;
2024-04-21 00:40;;106;
2024-04-21 00:50;;105;
2024-04-21 01:00;;104;
2024-04-21 01:10;;104;
2024-04-21 01:20;;103;
2024-04-21 01:30;;102;
2024-04-21 01:40;;102;
2024-04-21 01:50;;101;
2024-04-21 02:00;;100;
2024-04-21 02:10;;100;
2024-04-21 02:20;;99;
2024-04-21 02:30;;98;
2024-04-21 02:40;;98;
2024-04-21 02:50;;97;
2024-04-21 03:00;;96;
2024-04-21 03:10;;96;
2024-04-21 03:20;;95;
2024-04-21 03:30;;95;
2024-04-21 03:40;;94;
2024-04-21 03:50;;94;
2024-04-21 04:00;;94;
2024-04-21 04:10;;93;
2024-04-21 04:20;;93;
2024-04-21 04:30;;93;
2024-04-21 04:40;;93;
2024-04-21 04:50;;93;
2024-04-21 05:00;;94;
2024-04-21 05:10;;94;
2024-04-21 05:20;;95;
2024-04-21 05:30;;96;
2024-04-21 05:40;;96;
2024-04-21 05:50;;97;
2024-04-21 06:00;;98;
2024-04-21 06:10;;99;
2024-04-21 06:20;;100;
2024-04-21 06:30;;101;
2024-04-21 06:40;;101;
2024-04-21 06:50;;102;
2024-04-21 07:00;;102;
2024-04-21 07:10;;102;
2024-04-21 07:20;;102;
2024-04-21 07:30;;103;
2024-04-21 07:40;;103;
2024-04-21 07:50;;103;
2024-04-21 08:00;;103;
2024-04-21 08:10;;103;
2024-04-21 08:20;;102;
2024-04-21 08:30;;102;
2024-04-21 08:40;;101;
2024-04-21 08:50;;100;
2024-04-21 09:00;;100;
2024-04-21 09:10;;99;
2024-04-21 09:20;;98;
2024-04-21 09:30;;98;
2024-04-21 09:40;;97;
2024-04-21 09:50;;97;
2024-04-21 10:00;;96;
2024-04-21 10:10;;96;
2024-04-21 10:20;;95;
2024-04-21 10:30;;95;
2024-04-21 10:40;;94;
2024-04-21 10:50;;94;
2024-04-21 11:00;;93;
2024-04-21 11:10;;93;
2024-04-21 11:20;;92;
2024-04-21 11:30;;91;
2024-04-21 11:40;;91;
2024-04-21 11:50;;90;
2024-04-21 12:00;;90;
2024-04-21 12:10;;89;
2024-04-21 12:20;;88;
2024-04-21 12:30;;88;
2024-04-21 12:40;;87;
2024-04-21 12:50;;86;
2024-04-21 13:00;;86;
2024-04-21 13:10;;85;
2024-04-21 13:20;;84;
2024-04-21 13:30;;84;
2024-04-21 13:40;;83;
2024-04-21 13:50;;82;
2024-04-21 14:00;;81;
2024-04-21 14:10;;81;
2024-04-21 14:20;;80;
2024-04-21 14:30;;79;
2024-04-21 14:40;;79;
2024-04-21 14:50;;78;
2024-04-21 15:00;;77;
2024-04-21 15:10;;77;
2024-04-21 15:20;;76;
2024-04-21 15:30;;75;
2024-04-21 15:40;;75;
2024-04-21 15:50;;75;
2024-04-21 16:00;;74;
2024-04-21 16:10;;74;
2024-04-21 16:20;;74;
2024-04-21 16:30;;74;
2024-04-21 16:40;;74;
2024-04-21 16:50;;74;
2024-04-21 17:00;;75;
2024-04-21 17:10;;75;
2024-04-21 17:20;;76;
2024-04-21 17:30;;77;
2024-04-21 17:40;;78;
2024-04-21 17:50;;79;
2024-04-21 18:00;;80;
2024-04-21 18:10;;81;
2024-04-21 18:20;;82;
2024-04-21 18:30;;83;
2024-04-21 18:40;;84;
2024-04-21 18:50;;84;
2024-04-21 19:00;;85;
2024-04-21 19:10;;85;
2024-04-21 19:20;;86;
2024-04-21 19:30;;86;
2024-04-21 19:40;;86;
2024-04-21 19:50;;87;
2024-04-21 20:00;;87;
2024-04-21 20:10;;87;
2024-04-21 20:20;;87;
2024-04-21 20:30;;87;
2024-04-21 20:40;;87;
2024-04-21 20:50;;87;
2024-04-21 21:00;;86;
2024-04-21 21:10;;86;
2024-04-21 21:20;;86;
2024-04-21 21:30;;86;
2024-04-21 21:40;;85;
2024-04-21 21:50;;85;
2024-04-21 22:00;;84;
2024-04-21 22:10;;84;
2024-04-21 22:20;;83;
2024-04-21 22:30;;83;
2024-04-21 22:40;;83;
2024-04-21 22:50;;82;
2024-04-21 23:00;;82;
2024-04-21 23:10;;81;
2024-04-21 23:20;;81;
2024-04-21 23:30;;80;
2024-04-21 23:40;;80;
2024-04-21 23:50;;80;
2024-04-22 00:00;;79;
2024-04-22 00:10;;79;
2024-04-22 00:20;;78;
2024-04-22 00:30;;78;
2024-04-22 00:40;;77;
2024-04-22 00:50;;77;
2024-04-22 01:00;;76;
2024-04-22 01:10;;76;
2024-04-22 01:20;;75;
2024-04-22 01:30;;75;
2024-04-22 01:40;;74;
2024-04-22 01:50;;73;
2024-04-22 02:00;;73;
2024-04-22 02:10;;72;
2024-04-22 02:20;;71;
2024-04-22 02:30;;71;
2024-04-22 02:40;;70;
2024-04-22 02:50;;70;
2024-04-22 03:00;;69;
2024-04-22 03:10;;68;
2024-04-22 03:20;;68;
2024-04-22 03:30;;67;
2024-04-22 03:40;;67;
2024-04-22 03:50;;66;
2024-04-22 04:00;;66;
2024-04-22 04:10;;66;
2024-04-22 04:20;;65;
2024-04-22 04:30;;65;
2024-04-22 04:40;;65;
2024-04-22 04:50;;65;
2024-04-22 05:00;;65;
2024-04-22 05:10;;65;
2024-04-22 05:20;;65;
2024-04-22 05:30;;65;
2024-04-22 05:40;;66;
2024-04-22 05:50;;67;
2024-04-22 06:00;;68;
2024-04-22 06:10;;69;
2024-04-22 06:20;;70;
2024-04-22 06:30;;71;
2024-04-22 06:40;;71;
2024-04-22 06:50;;72;
2024-04-22 07:00;;73;
2024-04-22 07:10;;74;
2024-04-22 07:20;;74;
2024-04-22 07:30;;75;
2024-04-22 07:40;;75;
2024-04-22 07:50;;75;
2024-04-22 08:00;;75;
2024-04-22 08:10;;75;
2024-04-22 08:20;;75;
2024-04-22 08:30;;75;
2024-04-22 08:40;;75;
2024-04-22 08:50;;74;
2024-04-22 09:00;;74;
2024-04-22 09:10;;73;
2024-04-22 09:20;;73;
2024-04-22 09:30;;72;
2024-04-22 09:40;;71;
2024-04-22 09:50;;71;
2024-04-22 10:00;;70;
2024-04-22 10:10;;70;
2024-04-22 10:20;;69;
2024-04-22 10:30;;68;
2024-04-22 10:40;;68;
2024-04-22 10:50;;67;
2024-04-22 11:00;;67;
2024-04-22 11:10;;66;
2024-04-22 11:20;;66;
2024-04-22 11:30;;65;
2024-04-22 11:40;;65;
2024-04-22 11:50;;64;
2024-04-22 12:00;;64;
2024-04-22 12:10;;63;
2024-04-22 12:20;;62;
2024-04-22 12:30;;62;
2024-04-22 12:40;;61;
2024-04-22 12:50;;61;
2024-04-22 13:00;;60;
2024-04-22 13:10;;59;
2024-04-22 13:20;;59;
2024-04-22 13:30;;58;
2024-04-22 13:40;;57;
2024-04-22 13:50;;57;
2024-04-22 14:00;;56;
2024-04-22 14:10;;55;
2024-04-22 14:20;;55;
2024-04-22 14:30;;54;
2024-04-22 14:40;;53;
2024-04-22 14:50;;52;
2024-04-22 15:00;;52;
2024-04-22 15:10;;51;
2024-04-22 15:20;;50;
2024-04-22 15:30;;50;
2024-04-22 15:40;;49;
2024-04-22 15:50;;49;
2024-04-22 16:00;;48;
2024-04-22 16:10;;48;
2024-04-22 16:20;;47;
2024-04-22 16:30;;47;
2024-04-22 16:40;;47;
2024-04-22 16:50;;47;
2024-04-22 17:00;;47;
2024-04-22 17:10;;48;
2024-04-22 17:20;;48;
2024-04-22 17:30;;49;
2024-04-22 17:40;;50;
2024-04-22 17:50;;51;
2024-04-22 18:00;;53;
2024-04-22 18:10;;54;
2024-04-22 18:20;;55;
2024-04-22 18:30;;57;
2024-04-22 18:40;;58;
2024-04-22 18:50;;59;
2024-04-22 19:00;;60;
2024-04-22 19:10;;61;
2024-04-22 19:20;;62;
2024-04-22 19:30;;63;
2024-04-22 19:40;;63;
2024-04-22 19:50;;64;
2024-04-22 20:00;;64;
2024-04-22 20:10;;65;
2024-04-22 20:20;;65;
2024-04-22 20:30;;66;
2024-04-22 20:40;;66;
2024-04-22 20:50;;67;
2024-04-22 21:00;;67;
2024-04-22 21:10;;67;
2024-04-22 21:20;;67;
2024-04-22 21:30;;67;
2024-04-22 21:40;;67;
2024-04-22 21:50;;67;
2024-04-22 22:00;;67;
2024-04-22 22:10;;66;
2024-04-22 22:20;;66;
2024-04-22 22:30;;66;
2024-04-22 22:40;;65;
2024-04-22 22:50;;65;
2024-04-22 23:00;;65;
2024-04-22 23:10;;64;
2024-04-22 23:20;;64;
2024-04-22 23:30;;63;
2024-04-22 23:40;;63;
2024-04-22 23:50;;62;
2024-04-23 00:00;;62;
2024-04-23 00:10;;62;
2024-04-23 00:20;;61;
2024-04-23 00:30;;61;
2024-04-23 00:40;;61;
2024-04-23 00:50;;60;
2024-04-23 01:00;;60;
2024-04-23 01:10;;59;
2024-04-23 01:20;;59;
2024-04-23 01:30;;59;
2024-04-23 01:40;;58;
2024-04-23 01:50;;58;
2024-04-23 02:00;;57;
2024-04-23 02:10;;56;
2024-04-23 02:20;;56;
2024-04-23 02:30;;55;
2024-04-23 02:40;;55;
2024-04-23 02:50;;54;
2024-04-23 03:00;;53;
2024-04-23 03:10;;53;
2024-04-23 03:20;;52;
2024-04-23 03:30;;52;
2024-04-23 03:40;;51;
2024-04-23 03:50;;51;
2024-04-23 04:00;;50;
2024-04-23 04:10;;50;
2024-04-23 04:20;;49;
2024-04-23 04:30;;49;
2024-04-23 04:40;;48;
2024-04-23 04:50;;48;
2024-04-23 05:00;;48;
2024-04-23 05:10;;48;
2024-04-23 05:20;;48;
2024-04-23 05:30;;49;
2024-04-23 05:40;;49;
2024-04-23 05:50;;50;
2024-04-23 06:00;;51;
2024-04-23 06:10;;52;
2024-04-23 06:20;;53;
2024-04-23 06:30;;55;
2024-04-23 06:40;;56;
2024-04-23 06:50;;58;
2024-04-23 07:00;;59;
2024-04-23 07:10;;60;
2024-04-23 07:20;;61;
2024-04-23 07:30;;62;
2024-04-23 07:40;;63;
2024-04-23 07:50;;63;
2024-04-23 08:00;;64;
2024-04-23 08:10;;64;
2024-04-23 08:20;;65;
2024-04-23 08:30;;65;
2024-04-23 08:40;;65;
2024-04-23 08:50;;65;
2024-04-23 09:00;;65;
2024-04-23 09:10;;65;
2024-04-23 09:20;;65;
2024-04-23 09:30;;64;
2024-04-23 09:40;;64;
2024-04-23 09:50;;64;
2024-04-23 10:00;;63;
2024-04-23 10:10;;63;
2024-04-23 10:20;;62;
2024-04-23 10:30;;62;
2024-04-23 10:40;;61;
2024-04-23 10:50;;60;
2024-04-23 11:00;;60;
2024-04-23 11:10;;59;
2024-04-23 11:20;;59;
2024-04-23 11:30;;58;
2024-04-23 11:40;;58;
2024-04-23 11:50;;57;
2024-04-23 12:00;;57;
2024-04-23 12:10;;56;
2024-04-23 12:20;;56;
2024-04-23 12:30;;55;
2024-04-23 12:40;;55;
2024-04-23 12:50;;54;
2024-04-23 13:00;;54;
2024-04-23 13:10;;53;
2024-04-23 13:20;;53;
2024-04-23 13:30;;52;
2024-04-23 13:40;;51;
2024-04-23 13:50;;51;
2024-04-23 14:00;;50;
2024-04-23 14:10;;50;
2024-04-23 14:20;;49;
2024-04-23 14:30;;48;
2024-04-23 14:40;;47;
2024-04-23 14:50;;47;
2024-04-23 15:00;;46;
2024-04-23 15:10;;45;
2024-04-23 15:20;;45;
2024-04-23 15:30;;44;
2024-04-23 15:40;;43;
2024-04-23 15:50;;43;
2024-04-23 16:00;;42;
2024-04-23 16:10;;41;
2024-04-23 16:20;;41;
2024-04-23 16:30;;40;
2024-04-23 16:40;;40;
2024-04-23 16:50;;40;
2024-04-23 17:00;;40;
2024-04-23 17:10;;40;
2024-04-23 17:20;;40;
2024-04-23 17:30;;40;
2024-04-23 17:40;;41;
2024-04-23 17:50;;42;
2024-04-23 18:00;;43;
2024-04-23 18:10;;44;
2024-04-23 18:20;;46;
2024-04-23 18:30;;47;
2024-04-23 18:40;;49;
2024-04-23 18:50;;50;
2024-04-23 19:00;;51;
2024-04-23 19:10;;53;
2024-04-23 19:20;;54;
2024-04-23 19:30;;55;
2024-04-23 19:40;;56;
2024-04-23 19:50;;57;
2024-04-23 20:00;;58;
2024-04-23 20:10;;58;
2024-04-23 20:20;;59;
2024-04-23 20:30;;60;
2024-04-23 20:40;;60;
2024-04-23 20:50;;61;
2024-04-23 21:00;;62;
2024-04-23 21:10;;63;
2024-04-23 21:20;;63;
2024-04-23 21:30;;64;
2024-04-23 21:40;;64;
2024-04-23 21:50;;64;
2024-04-23 22:00;;64;
2024-04-23 22:10;;64;
2024-04-23 22:20;;64;
2024-04-23 22:30;;64;
2024-04-23 22:40;;63;
2024-04-23 22:50;;63;
2024-04-23 23:00;;63;
2024-04-23 23:10;;62;
2024-04-23 23:20;;62;
2024-04-23 23:30;;61;
2024-04-23 23:40;;60;
2024-04-23 23:50;;60;
2024-04-24 00:00;;59;
2024-04-24 00:10;;59;
2024-04-24 00:20;;58;
2024-04-24 00:30;;58;
2024-04-24 00:40;;57;
2024-04-24 00:50;;57;
2024-04-24 01:00;;57;
2024-04-24 01:10;;56;
2024-04-24 01:20;;56;
2024-04-24 01:30;;56;
2024-04-24 01:40;;55;
2024-04-24 01:50;;55;
2024-04-24 02:00;;54;
2024-04-24 02:10;;54;
2024-04-24 02:20;;53;
2024-04-24 02:30;;53;
2024-04-24 02:40;;52;
2024-04-24 02:50;;52;
2024-04-24 03:00;;51;
2024-04-24 03:10;;50;
2024-04-24 03:20;;50;
2024-04-24 03:30;;49;
2024-04-24 03:40;;48;
2024-04-24 03:50;;48;
2024-04-24 04:00;;47;
2024-04-24 04:10;;47;
2024-04-24 04:20;;46;
2024-04-24 04:30;;46;
2024-04-24 04:40;;45;
2024-04-24 04:50;;45;
2024-04-24 05:00;;45;
2024-04-24 05:10;;45;
2024-04-24 05:20;;45;
2024-04-24 05:30;;45;
2024-04-24 05:40;;45;
2024-04-24 05:50;;46;
2024-04-24 06:00;;47;
2024-04-24 06:10;;48;
2024-04-24 06:20;;49;
2024-04-24 06:30;;51;
2024-04-24 06:40;;53;
2024-04-24 06:50;;54;
2024-04-24 07:00;;56;
2024-04-24 07:10;;57;
2024-04-24 07:20;;59;
2024-04-24 07:30;;60;
2024-04-24 07:40;;61;
2024-04-24 07:50;;63;
2024-04-24 08:00;;64;
2024-04-24 08:10;;65;
2024-04-24 08:20;;65;
2024-04-24 08:30;;66;
2024-04-24 08:40;;67;
2024-04-24 08:50;;67;
2024-04-24 09:00;;68;
2024-04-24 09:10;;69;
2024-04-24 09:20;;69;
2024-04-24 09:30;;70;
2024-04-24 09:40;;70;
2024-04-24 09:50;;70;
2024-04-24 10:00;;70;
2024-04-24 10:10;;70;
2024-04-24 10:20;;69;
2024-04-24 10:30;;69;
2024-04-24 10:40;;68;
2024-04-24 10:50;;68;
2024-04-24 11:00;;67;
2024-04-24 11:10;;67;
2024-04-24 11:20;;66;
2024-04-24 11:30;;65;
2024-04-24 11:40;;65;
2024-04-24 11:50;;64;
2024-04-24 12:00;;64;
2024-04-24 12:10;;63;
2024-04-24 12:20;;63;
2024-04-24 12:30;;62;
2024-04-24 12:40;;61;